Weather History for Paris, TX

Change the Weather History Date:

Monday, November 21, 2011

  Actual Average Record
Temperature  
Mean Temperature 53 °F -  
Max Temperature 60 °F 60 °F 75 °F (2003)
Min Temperature 46 °F 42 °F 6 °F (2008)
Degree Days  
Heating Degree Days 12    
Growing Degree Days 3 (Base 50)    
Moisture  
Dew Point 49 °F    
Average Humidity 91    
Maximum Humidity 100    
Minimum Humidity 72    
Precipitation  
Precipitation 0.00 in - - ()
Sea Level Pressure  
Sea Level Pressure 30.09 in    
Wind  
Wind Speed 7 mph (NNW)    
Max Wind Speed 13 mph    
Max Gust Speed -    
Visibility 7 miles    
Events      
Averages and records for this station are not official NWS values.
T = Trace of Precipitation, MM = Missing Value Source: NWS Daily Summary

Daily Weather History Graph

Daily Weather History Graph

Search for Another Location

Airport:

Trip Planner

Search our weather history database for the weather conditions in past years. The results will help you decide how hot, cold, wet, or windy it might be!

Date:

Astronomy

Nov. 21, 2011 Rise Set
Actual Time 6:58 AM CST 5:16 PM CST
Civil Twilight 6:32 AM CST 5:42 PM CST
Nautical Twilight 6:01 AM CST 6:13 PM CST
Astronomical Twilight 5:32 AM CST 6:42 PM CST
Moon 2:48 AM CST (11/21) 2:30 PM CST (11/21)
Length of Visible Light 11h 10m
Length of Day
10h 17m
Waning Crescent, 17% of the Moon is Illuminated
Nov 21
Waning Crescent
Nov 25
New
Dec 2
First Quarter
Dec 10
Full
Dec 17
Last Quarter

Hourly Weather History & Observations

Time (CST) Temp. Windchill Dew Point Humidity Pressure Visibility Wind Dir Wind Speed Gust Speed Precip Events Conditions
12:15 AM 50.0 °F - 48.2 °F 94% 30.11 in 10.0 mi NW 9.2 mph - N/A   Overcast
12:35 AM 50.0 °F - 48.2 °F 94% 30.11 in 10.0 mi NW 10.4 mph - N/A   Overcast
12:55 AM 50.0 °F - 46.4 °F 87% 30.10 in 10.0 mi West 4.6 mph - N/A   Overcast
1:15 AM 50.0 °F - 46.4 °F 87% 30.10 in 10.0 mi NW 9.2 mph - N/A   Overcast
1:35 AM 50.0 °F - 46.4 °F 87% 30.10 in 10.0 mi West 5.8 mph - N/A   Overcast
1:55 AM 50.0 °F - 46.4 °F 87% 30.10 in 10.0 mi WNW 10.4 mph - N/A   Overcast
2:35 AM 48.2 °F - 46.4 °F 93% 30.12 in 6.0 mi NW 12.7 mph - N/A   Overcast
2:55 AM 46.4 °F 41.5 °F 46.4 °F 100% 30.12 in 3.0 mi NW 10.4 mph - N/A   Overcast
3:15 AM 46.4 °F 42.4 °F 46.4 °F 100% 30.12 in 3.0 mi NW 8.1 mph - N/A   Overcast
3:35 AM 46.4 °F 42.9 °F 46.4 °F 100% 30.12 in 3.0 mi NNW 6.9 mph - N/A   Overcast
3:55 AM 46.4 °F 43.5 °F 46.4 °F 100% 30.12 in 3.0 mi WNW 5.8 mph - N/A   Overcast
4:15 AM 46.4 °F 43.5 °F 46.4 °F 100% 30.13 in 4.0 mi NW 5.8 mph - N/A   Overcast
4:35 AM 46.4 °F 42.9 °F 46.4 °F 100% 30.13 in 3.0 mi NNW 6.9 mph - N/A   Overcast
4:55 AM 46.4 °F 42.9 °F 46.4 °F 100% 30.13 in 3.0 mi NW 6.9 mph - N/A   Overcast
5:15 AM 46.4 °F 42.4 °F 44.6 °F 93% 30.14 in 4.0 mi NW 8.1 mph - N/A   Overcast
5:35 AM 46.4 °F 42.4 °F 44.6 °F 93% 30.14 in 3.0 mi NW 8.1 mph - N/A   Overcast
5:55 AM 46.4 °F 42.4 °F 44.6 °F 93% 30.14 in 3.0 mi NW 8.1 mph - N/A   Overcast
6:15 AM 46.4 °F 42.9 °F 44.6 °F 93% 30.15 in 5.0 mi NW 6.9 mph - N/A   Overcast
6:35 AM 46.4 °F 43.5 °F 44.6 °F 93% 30.15 in 5.0 mi NW 5.8 mph - N/A   Overcast
6:55 AM 46.4 °F 43.5 °F 44.6 °F 93% 30.16 in 8.0 mi NW 5.8 mph - N/A   Overcast
7:15 AM 46.4 °F 43.5 °F 44.6 °F 93% 30.16 in 7.0 mi NW 5.8 mph - N/A   Overcast
7:35 AM 46.4 °F 42.9 °F 44.6 °F 93% 30.17 in 5.0 mi NNW 6.9 mph - N/A   Overcast
7:55 AM 46.4 °F 42.4 °F 44.6 °F 93% 30.18 in 5.0 mi NNW 8.1 mph - N/A   Overcast
8:15 AM 46.4 °F 42.9 °F 44.6 °F 93% 30.17 in 6.0 mi NNW 6.9 mph - N/A   Overcast
8:35 AM 46.4 °F 43.5 °F 44.6 °F 93% 30.17 in 7.0 mi NW 5.8 mph - N/A   Overcast
8:55 AM 46.4 °F 43.5 °F 44.6 °F 93% 30.18 in 8.0 mi NW 5.8 mph - N/A   Overcast
9:15 AM 48.2 °F - 46.4 °F 93% 30.19 in 8.0 mi WNW 9.2 mph - N/A   Overcast
9:35 AM 48.2 °F - 44.6 °F 87% 30.19 in 10.0 mi NW 5.8 mph - N/A   Overcast
9:55 AM 48.2 °F - 46.4 °F 93% 30.18 in 5.0 mi NW 6.9 mph - N/A   Overcast
10:15 AM 48.2 °F - 46.4 °F 93% 30.17 in 10.0 mi NNW 8.1 mph - N/A   Overcast
10:35 AM 50.0 °F - 46.4 °F 87% 30.16 in 10.0 mi NNW 8.1 mph - N/A   Overcast
10:55 AM 51.8 °F - 46.4 °F 82% 30.16 in 10.0 mi NNW 5.8 mph - N/A   Overcast
11:15 AM 51.8 °F - 46.4 °F 82% 30.15 in 10.0 mi North 4.6 mph - N/A   Overcast
11:35 AM 51.8 °F - 48.2 °F 88% 30.15 in 10.0 mi NNW 4.6 mph - N/A   Overcast
11:55 AM 53.6 °F - 48.2 °F 82% 30.13 in 10.0 mi North 4.6 mph - N/A   Overcast
12:15 PM 53.6 °F - 48.2 °F 82% 30.11 in 10.0 mi Calm Calm - N/A   Overcast
12:35 PM 55.4 °F - 48.2 °F 77% 30.08 in 10.0 mi NNE 6.9 mph - N/A   Overcast
12:55 PM 57.2 °F - 50.0 °F 77% 30.06 in 10.0 mi NE 3.5 mph - N/A   Overcast
1:15 PM 57.2 °F - 51.8 °F 82% 30.05 in 10.0 mi Calm Calm - N/A   Overcast
1:35 PM 60.8 °F - 51.8 °F 72% 30.03 in 10.0 mi ESE 6.9 mph - N/A   Overcast
1:55 PM 60.8 °F - 51.8 °F 72% 30.02 in 10.0 mi East 3.5 mph - N/A   Overcast
2:15 PM 60.8 °F - 53.6 °F 77% 30.01 in 10.0 mi ESE 9.2 mph - N/A   Overcast
2:35 PM 60.8 °F - 53.6 °F 77% 30.00 in 10.0 mi SE 5.8 mph - N/A   Overcast
2:55 PM 59.0 °F - 55.4 °F 88% 29.99 in 10.0 mi SE 8.1 mph - N/A   Overcast
3:15 PM 57.2 °F - 55.4 °F 94% 29.98 in 9.0 mi SSE 9.2 mph - N/A   Overcast
3:35 PM 57.2 °F - 55.4 °F 94% 29.97 in 5.0 mi ESE 9.2 mph - N/A   Overcast
3:55 PM 57.2 °F - 55.4 °F 94% 29.96 in 5.0 mi ESE 5.8 mph - N/A   Overcast
4:15 PM 57.2 °F - 55.4 °F 94% 29.94 in 5.0 mi SE 4.6 mph - N/A   Overcast
4:55 PM 57.2 °F - 55.4 °F 94% 29.92 in 6.0 mi East 8.1 mph - N/A   Overcast
5:15 PM 57.2 °F - 55.4 °F 94% 29.89 in 2.5 mi East 9.2 mph - N/A   Overcast
5:35 PM 57.2 °F - 57.2 °F 100% 29.90 in 1.2 mi ESE 4.6 mph - N/A   Overcast
5:55 PM 57.2 °F - 57.2 °F 100% 29.89 in 0.5 mi ENE 3.5 mph - N/A   Overcast
6:15 PM 57.2 °F - 57.2 °F 100% 29.88 in 0.5 mi NNE 6.9 mph - N/A   Overcast
6:35 PM 57.2 °F - 55.4 °F 94% 29.88 in 0.5 mi North 6.9 mph - N/A   Overcast
6:55 PM 57.2 °F - 55.4 °F 94% 29.85 in 0.8 mi NE 6.9 mph - N/A   Overcast
7:15 PM 57.2 °F - 55.4 °F 94% 29.87 in 0.5 mi North 5.8 mph - N/A   Overcast
7:35 PM 57.2 °F - 55.4 °F 94% 29.83 in 0.8 mi ENE 10.4 mph 16.1 mph N/A   Overcast
7:55 PM 60.8 °F - 60.8 °F 100% 29.92 in 1.5 mi WNW 26.5 mph 39.1 mph N/A Thunderstorm Thunderstorm
8:15 PM 57.2 °F - 55.4 °F 94% 29.92 in 4.0 mi WNW 10.4 mph - 0.66 in Thunderstorm Thunderstorm
8:35 PM 57.2 °F - 57.2 °F 100% 29.89 in 10.0 mi SSW 5.8 mph - 0.74 in Thunderstorm Thunderstorm
8:55 PM 57.2 °F - 57.2 °F 100% 29.89 in 9.0 mi SSW 4.6 mph - 0.74 in   Mostly Cloudy
9:35 PM 57.2 °F - 57.2 °F 100% 29.89 in 9.0 mi WSW 3.5 mph - 0.12 in Thunderstorm Overcast
9:55 PM 57.2 °F - 55.4 °F 94% 29.91 in 10.0 mi WNW 15.0 mph 19.6 mph 0.16 in   Overcast
10:15 PM 57.2 °F - 57.2 °F 100% 29.94 in 10.0 mi WNW 20.7 mph 26.5 mph 0.15 in Thunderstorm Thunderstorm
10:35 PM 53.6 °F - 51.8 °F 94% 29.94 in 10.0 mi NW 13.8 mph - 0.27 in Thunderstorm Thunderstorm
10:55 PM 51.8 °F - 50.0 °F 94% 29.93 in 7.0 mi NW 11.5 mph 21.9 mph 0.47 in   Overcast
11:35 PM 48.2 °F - 48.2 °F 100% 29.93 in 9.0 mi NW 9.2 mph - 0.08 in Thunderstorm Overcast